C/2022 U1 ( Leonard )

Japanese version
Home page
Updated on September 2, 2023

---------------------------------------------------------------------

* Profile

Discovery Date October 20, 2022
Magnitude 19.8 mag
Discoverer G. J. Leonard (Mt. Lemmon)

* Pictures

* Orbital Elements

Epoch 2023 Sept. 13.0 TT = JDT 2460200.5
T 2024 Mar. 25.68250 TT                                 Rudenko
q   4.2024221            (2000.0)            P               Q
z  +0.0000767      Peri.   78.55030     +0.63705279     -0.17745043
 +/-0.0000046      Node    72.51964     -0.29972214     -0.95358685
e   0.9996777      Incl.  128.14647     +0.71016222     -0.24327653
>From 167 observations 2022 Sept. 23-2023 Aug. 20, mean residual 0".4.

* Magnitudes Graph

        m1 = 8.0 + 5 log d + 10.0 log r

---------------------------------------------------------------------

The orbital elements are published on M.P.E.C. 2023-Q150.
The magnitudes graphs are made with Comet for Windows.

---------------------------------------------------------------------

Copyright(C) Seiichi Yoshida (comet@aerith.net). All rights reserved.